Flag for U.S.A. Weather past 2 weeks in Pierre, South Dakota, U.S.A.

Now
48 °F

Sunny.


Feels Like: 44 °F
Forecast: 43 / 72 °F
Wind: 8 mph from Northwest

Location: Pierre Regional Airport


UV Index: 5 (Moderate)

Visibility: 10 mi


Pressure: 29.75 "Hg

Humidity: 39%

Dew point: 24 °F

Location of PierreLocation

Historic Weather in Pierre

°F

Pierre temperature yesterday

Maximum temperature yesterday: 73 °F (at 3:53 PM)
Minimum temperature yesterday: 44 °F (at 11:53 PM)
Average temperature yesterday: 59 °F

Past Weeks' High & Low Weather Summary

 TemperatureHumidityPressure
High82 °F (Apr 18, 4:53 PM)92% (Apr 16, 8:53 AM)30.35 "Hg (Apr 16, 8:53 AM)
Low13 °F (Apr 15, 3:53 AM)16% (Apr 19, 4:53 PM)29.45 "Hg (Apr 23, 3:53 PM)
Average48 °F51%29.92 "Hg
* Reported Apr 9 8:53 PM — Apr 24 8:53 PM, Pierre, Weather by CustomWeather, © 2014

Note: Actual official high and low records may vary slightly from our data, if they occured in-between our weather recording intervals... More about our weather records

Advertising

Historic Weather Conditions — Data for Previous 24 hours

 ConditionsComfort  
Time TempWeatherWind HumidityBarometerVisibility
8:53 PM
Apr 24
48 °FSunny.8 mph39%29.75 "Hg10 mi
7:53 PM60 °FSunny.13 mph25%29.73 "Hg10 mi
6:53 PM63 °FSunny.20 mph20%29.71 "Hg10 mi
5:53 PM65 °FSunny.21 mph19%29.72 "Hg10 mi
4:53 PM66 °FSunny.23 mph19%29.72 "Hg10 mi
3:53 PM66 °FScattered clouds.26 mph22%29.72 "Hg10 mi
2:53 PM65 °FScattered clouds.29 mph21%29.73 "Hg8 mi
1:53 PM64 °FSunny.22 mph26%29.75 "Hg10 mi
12:53 PM64 °FSunny.25 mph26%29.77 "Hg10 mi
11:53 AM61 °FSunny.22 mph27%29.79 "Hg10 mi
10:53 AM59 °FSunny.21 mph32%29.79 "Hg10 mi
9:53 AM54 °FSunny.17 mph40%29.79 "Hg10 mi
8:53 AM50 °FSunny.17 mph44%29.79 "Hg10 mi
7:53 AM45 °FSunny.12 mph58%29.78 "Hg10 mi
6:53 AM44 °FClear.13 mph65%29.77 "Hg10 mi
5:53 AM45 °FClear.14 mph65%29.74 "Hg10 mi
4:53 AM45 °FClear.10 mph71%29.73 "Hg10 mi
3:53 AM44 °FClear.10 mph76%29.74 "Hg10 mi
2:53 AM44 °FClear.10 mph76%29.75 "Hg10 mi
1:53 AM44 °FClear.9 mph73%29.76 "Hg10 mi
12:53 AM46 °FClear.12 mph71%29.74 "Hg10 mi
11:53 PM
Apr 23
44 °FClear.13 mph73%29.74 "Hg10 mi
10:53 PM50 °FPassing clouds.7 mph61%29.72 "Hg10 mi
Weather by CustomWeather, © 2014

See weather overview